星链-6236 (STARLINK-6236 )

导读

STARLINK-6236是美国太空探索技术公司(SpaceX)星链(Starlink)项目的卫星,于2023年5月4日发射升空,属于星链低轨互联网星座的组成部分,用于为全球提供高速低延迟的宽带互联网服务。星链星座通过大规模部署低轨卫星,逐步实现全球覆盖,该卫星加入后进一步扩充了星链星座的服务能力。

基本信息
目录编号:
56422
目录名称:
STARLINK-6236
国际标识:
2023-061BA
轨道中心:
EARTH
卫星名称:
星链-6236
卫星全名:
星链-6236 (STARLINK-6236 )
卫星状态:
在轨 (已飞行1137 天)
发射日期:
2023-05-04 UTC
国别 :
美国 (US)
星等 :
--
轨道信息
数据来源 国际轨道数据 AOE轨道数据
星历时间 2026-06-14T04:09:22+0800
1天前
查看轨道信息
2026-06-11T12:00:00+0800
3天前
查看轨道信息
半长轴 6861.206km 6861.169km
偏心率 0.000119 0.0001285
轨道倾角 43.002° 43.003°
近地点辐角 264.569° 264.599°
升交点赤经 356.630° 11.732°
平近点角 95.503° 137.739°
近地点 482.252km 482.15km
远地点 483.886km 483.914km
周期 94.267分钟 94.266分钟
每日圈数 15.275735 15.275858
详细信息
固有亮度:
5
最大亮度:
2.5
卫星平台:
Starlink v1.5
覆盖范围:
全球
运营商:
太空探索技术公司
运营商所在国:
美国
制造商(研发单位):
太空探索技术公司
制造商所在国:
美国
使用方式:
暂无
卫星简介
星链(Starlink)计划是由太空探索技术公司(SpaceX)提出的一个巨型低轨卫星互联网星座项目,计划在2019年至2024年间在太空搭建由约1.2万颗卫星组成的“星链”网络,其中1584颗将部署在地球上空550千米处的近地轨道,并从2020年开始工作。该卫星仍在工作。
2D轨道图
3D轨道图
轨道高度分析图
轨道倾角分析图
轨道综合分析图
查看轨道综合分析图